LiveATC.Net - Listen to live air traffic control over the Internet!

ICAO: KSTS  IATA: STS   Airport: Charles M. Schulz - Sonoma County Airport
City: Santa Rosa   State/Province: California
Country: United States   Continent: North America
KSTS METAR Weather: KSTS 240153Z 19008KT 10SM -RA FEW028 BKN050 OVC055 11/07 A3010 RMK AO2 RAB32 SLP187 P0000 T01110067
KSTS Flight Activity (FlightAware)
KSTS Airport Info   (AirNav) (iFlightPlanner)
KSTS VFR Sectional Chart   (iFlightPlanner) 
KSTS IFR Low Chart   (iFlightPlanner) 
KSTS Tower
Feed Status: UP   Listeners: 0
Listen right in your browser - requires Flash (in browser, requires Flash)
Click here to listen with your own player (launches your MP3 player)
KSTS Tower Audio Archives
Santa Rosa Tower118.500

Sponsored by: North Coast Air


Unauthorized use prohibited. See Terms of Service

Find LiveATC Audio Streams

Airport/ARTCC Code

Frequency Search
(e.g., 124.400, 128.75)
Site-wide search

Browse LiveATC Feeds
LiveATC Coverage Map
Top 50 LiveATC Feeds
Bad Weather Areas

Offer a LiveATC Feed
Press Inquiries

LiveATC on iPhone
LiveATC on Android

Windows Phone
Windows 8/10

LiveATC Mobile
(Mobile browser)

ATC Audio Archives
Interesting Recordings

LiveATC Forums

Home Page
Make a Donation
Terms of Use
Privacy Policy

Canadian Air Freqs


FAA Airport Status
Nat'l Airspace Status
Arrival Demand Charts

Server Software By: